Location: Boiro
(42.6475°N, 8.8834°W)
Time: 01:06:37
(UTC+01:00)

Transit 2A Rocket - Pass Details

Date: 05 December 2021
Orbit: 584 x 917 km, 66.7° (Epoch: 23 January)

Event Time Altitude Azimuth Distance (km) Brightness Sun altitude
Rises 08:17:44 0° 192° (SSW) 3,270 8.4 -6.1°
Reaches altitude 10° 08:20:07 10° 187° (S) 2,394 7.8 -5.7°
Maximum altitude 08:25:28 50° 113° (ESE) 1,080 6.4 -4.8°
Drops below altitude 10° 08:31:15 10° 40° (NE) 2,578 7.9 -3.9°
Sets 08:33:54 0° 36° (NE) 3,545 8.5 -3.5°
